Location: Amarillo Post Office Jordan Station
(35.1907°N, 101.9342°W)
Time: 12:53:14
(UTC+00:00)

H-2A R/B - Pass Details

Date: 24 January 2021
Orbit: 504 x 534 km, 97.3° (Epoch: 01 March)

Event Time Altitude Azimuth Distance (km) Brightness Sun altitude
Rises 12:27:30 0° 7° (N) 2,631 6.2 -17.3°
Reaches altitude 10° 12:29:36 10° 4° (N) 1,745 5.3 -16.9°
Maximum altitude 12:33:19 62° 284° (WNW) 589 2.6 -16.1°
Drops below altitude 10° 12:37:02 10° 203° (SSW) 1,750 5.3 -15.4°
Sets 12:39:09 0° 200° (SSW) 2,639 6.2 -15.0°
